Rawlins, WY

9:05 AM MDT on August 17, 2017 (GMT -0600)
Rawlins Municipal

Weather History for KRWL - July, 2013

Change the Weather History Date:

Monday, July 15, 2013

  Actual Average Record
Temperature  
Mean Temperature 74 °F 68 °F  
Max Temperature 90 °F 84 °F 97 °F (2002)
Min Temperature 57 °F 51 °F 39 °F (1997)
Degree Days  
Heating Degree Days 0 1  
Month to date heating degree days 0 22  
Since 1 June heating degree days 101 212  
Since 1 July heating degree days 0 22  
Cooling Degree Days 9 3  
Month to date cooling degree days 71 40  
Year to date cooling degree days 119 59  
Since 1 June cooling degree days 118 59  
Growing Degree Days 24 (Base 50)    
Moisture  
Dew Point 49 °F    
Average Humidity 54    
Maximum Humidity 93    
Minimum Humidity 15    
Precipitation  
Precipitation 0.00 in 0.03 in 0.61 in (1999)
Month to date precipitation 0.68 0.37  
Year to date precipitation 2.78 5.32  
Sea Level Pressure  
Sea Level Pressure 29.91 in    
Wind  
Wind Speed 9 mph (ENE)    
Max Wind Speed 28 mph    
Max Gust Speed 31 mph    
Visibility 10 miles    
Events      
T = Trace of Precipitation, MM = Missing Value Source: NWS Daily Summary

Daily Weather History Graph

Daily Weather History Graph

Search for Another Location

Airport or City:

Trip Planner

Search our weather history database for the weather conditions in past years. The results will help you decide how hot, cold, wet, or windy it might be!

Date:

Astronomy

Jul. 15, 2013 Rise Set
Actual Time 5:47 AM MDT 8:41 PM MDT
Civil Twilight 5:14 AM MDT 9:14 PM MDT
Nautical Twilight 4:32 AM MDT 9:56 PM MDT
Astronomical Twilight 3:43 AM MDT 10:45 PM MDT
Moon 1:17 PM MDT (7/15) No Moon Set
Length of Visible Light 16h 00m
Length of Day
14h 54m
Waxing Crescent, 46% of the Moon is Illuminated
Jul 15
Waxing Crescent
Jul 15
First Quarter
Jul 22
Full
Jul 29
Last Quarter
Aug 6
New

Hourly Weather History & Observations

Time (MDT) Temp. Dew Point Humidity Pressure Visibility Wind Dir Wind Speed Gust Speed Precip Events Conditions
12:53 AM 62.1 °F 55.0 °F 78% 29.99 in 10.0 mi NE 9.2 mph - N/A   Clear
1:53 AM 61.0 °F 57.0 °F 87% 29.99 in 10.0 mi ENE 9.2 mph - N/A   Clear
2:53 AM 60.1 °F 57.0 °F 90% 29.97 in 10.0 mi NE 10.4 mph - N/A   Clear
3:53 AM 59.0 °F 57.0 °F 93% 29.96 in 10.0 mi ENE 8.1 mph - N/A   Clear
4:53 AM 57.0 °F 55.9 °F 96% 29.96 in 9.0 mi ENE 10.4 mph - N/A   Clear
5:53 AM 57.0 °F 55.9 °F 96% 29.97 in 8.0 mi ENE 9.2 mph - N/A   Clear
6:53 AM 59.0 °F 57.0 °F 93% 29.98 in 7.0 mi ENE 5.8 mph - N/A   Clear
7:53 AM 64.0 °F 54.0 °F 70% 29.97 in 10.0 mi Calm Calm - N/A   Clear
8:53 AM 66.9 °F 54.0 °F 63% 29.98 in 10.0 mi East 8.1 mph - N/A   Clear
9:53 AM 71.1 °F 51.1 °F 49% 29.96 in 10.0 mi ESE 8.1 mph - N/A   Clear
10:53 AM 75.9 °F 50.0 °F 40% 29.94 in 10.0 mi Variable 3.5 mph - N/A   Clear
11:53 AM 81.0 °F 48.0 °F 31% 29.92 in 10.0 mi NE 9.2 mph - N/A   Clear
12:53 PM 82.9 °F 42.1 °F 24% 29.90 in 10.0 mi Variable 4.6 mph - N/A   Clear
1:53 PM 86.0 °F 37.0 °F 18% 29.87 in 10.0 mi NNE 6.9 mph - N/A   Clear
2:53 PM 90.0 °F 39.0 °F 17% 29.83 in 10.0 mi ENE 10.4 mph - N/A   Clear
3:53 PM 89.1 °F 37.0 °F 16% 29.82 in 10.0 mi ENE 11.5 mph - N/A   Overcast
4:53 PM 87.1 °F 34.0 °F 15% 29.81 in 10.0 mi Calm Calm - N/A   Partly Cloudy
5:53 PM 86.0 °F 41.0 °F 20% 29.81 in 10.0 mi ENE 11.5 mph 20.7 mph N/A   Scattered Clouds
6:53 PM 81.0 °F 48.0 °F 31% 29.83 in 10.0 mi East 21.9 mph 27.6 mph N/A   Clear
7:53 PM 73.9 °F 46.9 °F 38% 29.86 in 10.0 mi ENE 19.6 mph - N/A   Clear
8:53 PM 71.1 °F 50.0 °F 47% 29.87 in 10.0 mi ENE 15.0 mph - N/A   Clear
9:53 PM 69.1 °F 52.0 °F 54% 29.88 in 10.0 mi ENE 12.7 mph - N/A   Clear
10:53 PM 66.0 °F 52.0 °F 60% 29.88 in 10.0 mi NE 6.9 mph - N/A   Clear
11:53 PM 64.0 °F 53.1 °F 67% 29.87 in 10.0 mi NE 9.2 mph - N/A   Clear